Weather History for Columbia, SC

Change the Weather History Date:

Saturday, December 29, 2012

  Actual Average Record
Temperature  
Mean Temperature 48 °F 45 °F  
Max Temperature 56 °F 56 °F 78 °F (1984)
Min Temperature 39 °F 34 °F 9 °F (1894)
Degree Days  
Heating Degree Days 17 20  
Month to date heating degree days 332 527  
Since 1 July heating degree days 793 968  
Cooling Degree Days 0 0  
Month to date cooling degree days 0 0  
Year to date cooling degree days 2505 2167  
Moisture  
Dew Point 39 °F    
Average Humidity 74    
Maximum Humidity 96    
Minimum Humidity 51    
Precipitation  
Precipitation 0.69 in 0.11 in 1.60 in (2013)
Month to date precipitation 3.51 3.01  
Year to date precipitation 42.76 44.38  
Sea Level Pressure  
Sea Level Pressure 29.86 in    
Wind  
Wind Speed 12 mph (West)    
Max Wind Speed 28 mph    
Max Gust Speed 36 mph    
Visibility 8 miles    
Events Rain    
T = Trace of Precipitation, MM = Missing Value Source: NWS Daily Summary

Daily Weather History Graph

Daily Weather History Graph

Search for Another Location

Airport:

Trip Planner

Search our weather history database for the weather conditions in past years. The results will help you decide how hot, cold, wet, or windy it might be!

Date:

Astronomy

Dec. 29, 2012 Rise Set
Actual Time 7:29 AM EST 5:24 PM EST
Civil Twilight 7:01 AM EST 5:52 PM EST
Nautical Twilight 6:30 AM EST 6:23 PM EST
Astronomical Twilight 5:59 AM EST 6:53 PM EST
Moon 6:51 PM EST (12/29) 8:05 AM EST (12/29)
Length of Visible Light 10h 50m
Length of Day
9h 55m
Full, 98% of the Moon is Illuminated
Dec 29
Full
Jan 4
Last Quarter
Jan 11
New
Jan 18
First Quarter
Jan 26
Full

Hourly Weather History & Observations

Time (EST) Temp. Windchill Dew Point Humidity Pressure Visibility Wind Dir Wind Speed Gust Speed Precip Events Conditions
12:56 AM 46.9 °F - 39.0 °F 74% 29.92 in 10.0 mi Calm Calm - 0.00 in Rain Light Rain
1:56 AM 44.1 °F 40.8 °F 41.0 °F 89% 29.88 in 5.0 mi NE 5.8 mph - 0.07 in Rain Light Rain
2:56 AM 44.1 °F 40.1 °F 41.0 °F 89% 29.85 in 4.0 mi North 6.9 mph - 0.02 in Rain Heavy Rain
3:56 AM 44.1 °F 38.1 °F 41.0 °F 89% 29.86 in 2.5 mi NW 11.5 mph 17.3 mph 0.31 in Rain Heavy Rain
4:56 AM 43.0 °F 40.3 °F 41.0 °F 93% 29.80 in 3.0 mi NE 4.6 mph - 0.22 in Rain Rain
5:56 AM 44.1 °F 39.0 °F 41.0 °F 89% 29.74 in 6.0 mi ESE 9.2 mph - 0.07 in Rain Light Rain
6:56 AM 44.1 °F - 41.0 °F 89% 29.77 in 8.0 mi Calm Calm - 0.00 in   Overcast
7:56 AM 45.0 °F 41.8 °F 42.1 °F 90% 29.80 in 7.0 mi West 5.8 mph - N/A   Overcast
8:27 AM 44.6 °F 40.7 °F 42.8 °F 93% 29.80 in 5.0 mi WNW 6.9 mph - N/A   Overcast
8:56 AM 45.0 °F 41.2 °F 43.0 °F 93% 29.82 in 2.0 mi West 6.9 mph - N/A   Overcast
9:13 AM 46.4 °F 42.9 °F 44.6 °F 93% 29.82 in 5.0 mi West 6.9 mph - N/A   Overcast
9:56 AM 46.0 °F 41.4 °F 44.1 °F 93% 29.82 in 9.0 mi West 9.2 mph - N/A   Overcast
10:18 AM 46.4 °F 41.5 °F 42.8 °F 87% 29.83 in 9.0 mi West 10.4 mph - N/A   Overcast
10:56 AM 48.0 °F - 44.1 °F 86% 29.83 in 9.0 mi West 10.4 mph - N/A   Overcast
11:18 AM 48.2 °F - 42.8 °F 82% 29.82 in 10.0 mi West 12.7 mph - N/A   Overcast
11:43 AM 51.8 °F - 44.6 °F 76% 29.81 in 10.0 mi West 17.3 mph 25.3 mph N/A   Scattered Clouds
11:56 AM 51.1 °F - 42.1 °F 71% 29.81 in 10.0 mi West 18.4 mph 26.5 mph N/A   Mostly Cloudy
12:56 PM 53.1 °F - 42.1 °F 66% 29.79 in 10.0 mi West 20.7 mph - N/A   Partly Cloudy
1:03 PM 53.6 °F - 41.0 °F 62% 29.79 in 10.0 mi West 19.6 mph 27.6 mph N/A   Partly Cloudy
1:56 PM 55.0 °F - 39.9 °F 57% 29.78 in 10.0 mi West 18.4 mph 24.2 mph N/A   Partly Cloudy
2:56 PM 55.9 °F - 39.9 °F 55% 29.79 in 10.0 mi WSW 13.8 mph 28.8 mph N/A   Partly Cloudy
3:56 PM 55.0 °F - 37.9 °F 53% 29.82 in 10.0 mi West 15.0 mph 27.6 mph N/A   Scattered Clouds
4:56 PM 50.0 °F - 37.9 °F 63% 29.85 in 10.0 mi WSW 20.7 mph 31.1 mph N/A   Mostly Cloudy
5:56 PM 46.9 °F - 36.0 °F 66% 29.88 in 10.0 mi West 12.7 mph - N/A   Scattered Clouds
6:56 PM 46.0 °F 39.0 °F 34.0 °F 63% 29.92 in 10.0 mi West 17.3 mph 25.3 mph N/A   Clear
7:56 PM 44.1 °F 35.4 °F 32.0 °F 63% 29.95 in 10.0 mi West 21.9 mph 32.2 mph N/A   Clear
8:56 PM 43.0 °F 35.1 °F 30.0 °F 60% 29.99 in 10.0 mi West 17.3 mph 25.3 mph N/A   Scattered Clouds
9:56 PM 42.1 °F 34.9 °F 28.9 °F 60% 30.01 in 10.0 mi West 13.8 mph - N/A   Scattered Clouds
10:56 PM 41.0 °F 34.3 °F 28.0 °F 60% 30.06 in 10.0 mi West 11.5 mph - N/A   Clear
11:56 PM 39.9 °F 32.9 °F 28.0 °F 63% 30.07 in 10.0 mi West 11.5 mph - N/A   Partly Cloudy